WC4PEM-9 Weather Reports


time (UTC)temp
C
wind
direction
speed
KPH
gust
KPH
rain 1hr
cm
rain 24hr
cm
rain mn
cm
humidity
%
barometer
mb
20260506144824 27 121 8.0 17.7 0.00 0.00 0.00 69 1016.7
20260506144324 27 188 6.4 17.7 0.00 0.00 0.00 72 1016.8
20260506143824 27 153 4.8 12.9 0.00 0.00 0.00 72 1017.0
20260506143324 27 196 6.4 14.5 0.00 0.00 0.00 73 1016.9
20260506142958 26 170 8.0 12.9 0.00 0.00 0.00 74 1016.5
20260506142824 26 170 8.0 12.9 0.00 0.00 0.00 74 1016.5
20260506142324 26 165 9.7 19.3 0.00 0.00 0.00 75 1016.9
20260506141825 26 153 8.0 19.3 0.00 0.00 0.00 76 1016.8
20260506141542 26 194 8.0 16.1 0.00 0.00 0.00 77 1016.6
20260506141325 26 194 8.0 16.1 0.00 0.00 0.00 77 1016.6
20260506140825 26 146 9.7 16.1 0.00 0.00 0.00 77 1016.9
20260506140325 26 191 8.0 17.7 0.00 0.00 0.00 78 1016.9
20260506135824 25 142 8.0 16.1 0.00 0.00 0.00 80 1016.9
20260506135324 25 141 6.4 16.1 0.00 0.00 0.00 80 1016.9
20260506134825 25 153 4.8 11.3 0.00 0.00 0.00 82 1017.0
20260506134325 25 137 6.4 11.3 0.00 0.00 0.00 82 1016.8
20260506133825 25 171 8.0 19.3 0.00 0.00 0.00 83 1016.9
20260506133550 24 155 8.0 16.1 0.00 0.00 0.00 84 1016.7
20260506133325 24 155 8.0 16.1 0.00 0.00 0.00 84 1016.7
20260506132825 24 173 9.7 16.1 0.00 0.00 0.00 85 1016.8
20260506132325 24 134 8.0 24.1 0.00 0.00 0.00 85 1016.8
20260506131825 23 175 6.4 16.1 0.00 0.00 0.00 86 1016.7
20260506131325 23 338 8.0 17.7 0.00 0.00 0.00 87 1016.7
20260506130825 23 156 8.0 17.7 0.00 0.00 0.00 88 1016.6
20260506130325 23 161 6.4 17.7 0.00 0.00 0.00 89 1016.4
20260506125825 22 111 6.4 12.9 0.00 0.00 0.00 90 1016.5
20260506125325 22 157 6.4 14.5 0.00 0.00 0.00 91 1016.2
20260506124825 22 148 4.8 14.5 0.00 0.00 0.00 92 1016.4
20260506124325 21 93 4.8 11.3 0.00 0.00 0.00 93 1016.4
20260506123825 21 178 4.8 9.7 0.00 0.00 0.00 94 1016.3
20260506123325 20 123 4.8 12.9 0.00 0.00 0.00 95 1016.2
20260506122825 20 157 4.8 12.9 0.00 0.00 0.00 95 1016.4
20260506122325 18 123 3.2 8.0 0.00 0.00 0.00 95 1016.3
20260506121825 18 165 1.6 6.4 0.00 0.00 0.00 95 1016.2
20260506121325 18 158 1.6 4.8 0.00 0.00 0.00 95 1016.1
20260506120825 17 239 1.6 3.2 0.00 0.00 0.00 95 1016.2
20260506120325 17 298 1.6 3.2 0.00 0.00 0.00 95 1016.2
20260506115825 17 298 1.6 3.2 0.00 0.00 0.00 95 1016.2
20260506115325 17 319 1.6 3.2 0.00 0.00 0.00 95 1016.1
20260506114825 16 279 1.6 3.2 0.00 0.00 0.00 95 1016.1
20260506114325 16 221 1.6 1.6 0.00 0.00 0.00 95 1016.1
20260506113825 16 137 1.6 3.2 0.00 0.00 0.00 95 1016.1
20260506113756 16 51 1.6 3.2 0.00 0.00 0.00 95 1016.0
20260506113325 16 51 1.6 3.2 0.00 0.00 0.00 95 1016.0
20260506112825 16 221 1.6 3.2 0.00 0.00 0.00 95 1015.8
20260506112325 16 178 1.6 3.2 0.00 0.00 0.00 95 1015.7
20260506111825 16 76 1.6 3.2 0.00 0.00 0.00 94 1015.9
20260506111325 16 221 1.6 3.2 0.00 0.00 0.00 94 1015.9
20260506110825 16 239 1.6 3.2 0.00 0.00 0.00 94 1015.8
20260506110325 16 120 1.6 4.8 0.00 0.00 0.00 94 1015.8
20260506105825 16 144 1.6 3.2 0.00 0.00 0.00 94 1015.7
20260506105454 16 93 1.6 6.4 0.00 0.00 0.00 94 1015.3
20260506105325 16 137 1.6 3.2 0.00 0.00 0.00 94 1015.6
20260506104825 16 93 1.6 6.4 0.00 0.00 0.00 94 1015.3
20260506104325 16 129 1.6 4.8 0.00 0.00 0.00 94 1015.0
20260506104130 16 178 1.6 3.2 0.00 0.00 0.00 94 1015.4
20260506103825 16 51 1.6 3.2 0.00 0.00 0.00 94 1015.2
20260506103325 16 76 1.6 3.2 0.00 0.00 0.00 94 1015.4
20260506102825 16 178 1.6 3.2 0.00 0.00 0.00 94 1015.4
20260506102325 16 221 1.6 3.2 0.00 0.00 0.00 94 1015.6
20260506101825 16 126 1.6 3.2 0.00 0.00 0.00 94 1015.3
20260506101325 16 153 0.0 1.6 0.00 0.00 0.00 94 1015.4
20260506100825 16 265 0.0 1.6 0.00 0.00 0.00 94 1015.4
20260506100325 16 221 0.0 1.6 0.00 0.00 0.00 94 1015.2
20260506095825 16 137 1.6 3.2 0.00 0.00 0.00 94 1015.2
20260506095325 16 137 1.6 3.2 0.00 0.00 0.00 94 1015.3
20260506094825 16 330 1.6 3.2 0.00 0.00 0.00 94 1015.5
20260506094325 16 9 1.6 3.2 0.00 0.00 0.00 94 1015.4
20260506093825 16 325 1.6 3.2 0.00 0.00 0.00 94 1015.4
20260506093325 16 51 1.6 1.6 0.00 0.00 0.00 94 1015.5
20260506092825 16 178 1.6 1.6 0.00 0.00 0.00 94 1015.4
20260506092325 16 137 1.6 1.6 0.00 0.00 0.00 94 1015.2
20260506091825 16 265 1.6 1.6 0.00 0.00 0.00 94 1015.1
20260506091325 16 178 1.6 1.6 0.00 0.00 0.00 94 1015.1
20260506090948 16 265 1.6 3.2 0.00 0.00 0.00 94 1015.3
20260506090825 16 137 1.6 1.6 0.00 0.00 0.00 94 1015.2
20260506090325 16 265 1.6 3.2 0.00 0.00 0.00 94 1015.3
20260506085825 16 137 1.6 1.6 0.00 0.00 0.00 94 1015.1
20260506085325 16 137 1.6 3.2 0.00 0.00 0.00 94 1015.0
20260506084825 16 120 1.6 3.2 0.00 0.00 0.00 94 1015.0
20260506084325 16 137 1.6 3.2 0.00 0.00 0.00 94 1014.9
20260506083825 16 205 1.6 3.2 0.00 0.00 0.00 94 1015.0
20260506083325 16 153 1.6 1.6 0.00 0.00 0.00 94 1014.8
20260506082825 16 265 1.6 3.2 0.00 0.00 0.00 94 1015.0
20260506082325 16 111 1.6 3.2 0.00 0.00 0.00 93 1015.0
20260506081825 16 126 0.0 1.6 0.00 0.00 0.00 93 1015.3
20260506081325 16 178 0.0 1.6 0.00 0.00 0.00 93 1015.2
20260506080825 16 51 1.6 1.6 0.00 0.00 0.00 93 1015.4
20260506080325 16 265 1.6 3.2 0.00 0.00 0.00 93 1015.3
20260506073325 16 165 1.6 3.2 0.00 0.00 0.00 93 1015.2
20260506072825 16 162 1.6 1.6 0.00 0.00 0.00 93 1015.3
20260506072325 16 9 1.6 1.6 0.00 0.00 0.00 93 1015.4
20260506071825 17 51 1.6 1.6 0.00 0.00 0.00 93 1015.4
20260506071325 17 153 1.6 1.6 0.00 0.00 0.00 93 1015.3
20260506070825 17 153 1.6 3.2 0.00 0.00 0.00 93 1015.1
20260506070325 17 178 1.6 3.2 0.00 0.00 0.00 93 1015.2
20260506062326 17 103 1.6 3.2 0.00 0.00 0.00 92 1015.7
20260506061826 17 120 1.6 3.2 0.00 0.00 0.00 92 1015.5
20260506061326 17 178 1.6 3.2 0.00 0.00 0.00 92 1015.7
20260506060826 17 111 1.6 3.2 0.00 0.00 0.00 92 1015.9
20260506060326 17 93 1.6 3.2 0.00 0.00 0.00 92 1016.0
20260506051326 17 221 1.6 3.2 0.00 0.00 0.00 90 1016.2
20260506050826 17 137 1.6 3.2 0.00 0.00 0.00 89 1016.3
20260506050326 17 146 0.0 3.2 0.00 0.00 0.00 89 1016.0
20260506044826 17 265 1.6 1.6 0.00 0.00 0.00 88 1016.1
20260506044715 18 120 1.6 3.2 0.00 0.00 0.00 88 1016.4
20260506044326 18 120 1.6 3.2 0.00 0.00 0.00 88 1016.4
20260506043929 18 51 1.6 3.2 0.00 0.00 0.00 88 1016.5
20260506043826 18 9 1.6 3.2 0.00 0.00 0.00 88 1016.4
20260506043326 18 51 1.6 3.2 0.00 0.00 0.00 88 1016.5
20260506042826 18 165 1.6 3.2 0.00 0.00 0.00 88 1016.5
20260506042600 18 126 3.2 3.2 0.00 0.00 0.00 88 1016.0
20260506042326 18 319 1.6 1.6 0.00 0.00 0.00 88 1016.4
20260506041826 18 126 3.2 3.2 0.00 0.00 0.00 88 1016.0
20260506041326 18 144 3.2 6.4 0.00 0.00 0.00 88 1016.1
20260506040826 18 158 1.6 4.8 0.00 0.00 0.00 87 1016.2
20260506040326 18 146 1.6 4.8 0.00 0.00 0.00 87 1015.9
20260506035826 18 137 1.6 3.2 0.00 0.00 0.00 87 1016.1
20260506035326 18 126 1.6 3.2 0.00 0.00 0.00 86 1016.3
20260506034826 18 137 1.6 3.2 0.00 0.00 0.00 86 1016.4
20260506034326 18 9 3.2 6.4 0.00 0.00 0.00 86 1016.4
20260506033826 18 144 3.2 8.0 0.00 0.00 0.00 85 1016.3
20260506033326 18 137 3.2 6.4 0.00 0.00 0.00 85 1015.9
20260506032826 19 153 3.2 6.4 0.00 0.00 0.00 85 1016.2
20260506032326 19 156 3.2 6.4 0.00 0.00 0.00 84 1016.3
20260506031826 19 137 3.2 6.4 0.00 0.00 0.00 84 1016.3
20260506031326 19 160 3.2 6.4 0.00 0.00 0.00 83 1016.2
20260506030826 19 111 3.2 6.4 0.00 0.00 0.00 83 1016.3
20260506030534 20 178 3.2 6.4 0.00 0.00 0.00 82 1016.4
20260506030326 20 123 3.2 6.4 0.00 0.00 0.00 82 1016.3
20260506025826 20 178 3.2 6.4 0.00 0.00 0.00 82 1016.4
20260506025326 20 158 1.6 3.2 0.00 0.00 0.00 81 1016.2
20260506024826 20 153 1.6 3.2 0.00 0.00 0.00 81 1016.1
20260506024326 20 153 1.6 3.2 0.00 0.00 0.00 80 1016.2
20260506023826 20 146 1.6 3.2 0.00 0.00 0.00 79 1016.1
20260506023812 20 146 1.6 3.2 0.00 0.00 0.00 78 1016.2
20260506023326 20 146 1.6 3.2 0.00 0.00 0.00 78 1016.2
20260506022826 21 93 1.6 3.2 0.00 0.00 0.00 77 1015.9
20260506022326 21 9 1.6 3.2 0.00 0.00 0.00 76 1016.0
20260506022051 21 137 1.6 3.2 0.00 0.00 0.00 75 1016.1
20260506021826 21 162 1.6 3.2 0.00 0.00 0.00 76 1015.9
20260506021326 21 137 1.6 3.2 0.00 0.00 0.00 75 1016.1
20260506020826 21 93 1.6 4.8 0.00 0.00 0.00 75 1015.9
20260506020633 21 9 1.6 4.8 0.00 0.00 0.00 74 1015.8
20260506020452 21 93 3.2 6.4 0.00 0.00 0.00 73 1015.9
20260506020326 21 9 1.6 4.8 0.00 0.00 0.00 74 1015.8
20260506015826 21 93 3.2 6.4 0.00 0.00 0.00 73 1015.9
20260506015326 22 221 3.2 8.0 0.00 0.00 0.00 72 1015.8
20260506014826 22 178 3.2 6.4 0.00 0.00 0.00 72 1015.7
20260506014326 22 110 3.2 4.8 0.00 0.00 0.00 72 1015.3
20260506013826 22 265 3.2 12.9 0.00 0.00 0.00 71 1015.3
20260506013552 22 133 3.2 6.4 0.00 0.00 0.00 70 1015.3
20260506013504 22 142 3.2 11.3 0.00 0.00 0.00 70 1015.3
20260506013326 22 133 3.2 6.4 0.00 0.00 0.00 70 1015.3
20260506013218 22 142 3.2 11.3 0.00 0.00 0.00 70 1015.3
20260506012826 22 142 3.2 11.3 0.00 0.00 0.00 70 1015.3
20260506012326 22 265 1.6 4.8 0.00 0.00 0.00 70 1015.2
20260506012041 22 111 3.2 6.4 0.00 0.00 0.00 70 1015.2
20260506011826 22 111 3.2 6.4 0.00 0.00 0.00 70 1015.2
20260506011326 23 124 3.2 11.3 0.00 0.00 0.00 69 1014.9
20260506010826 23 158 4.8 8.0 0.00 0.00 0.00 68 1015.1
20260506010326 23 171 4.8 12.9 0.00 0.00 0.00 68 1015.0
20260506010043 23 151 4.8 12.9 0.00 0.00 0.00 67 1014.9
20260506005826 23 151 4.8 12.9 0.00 0.00 0.00 67 1014.9
20260506005326 23 93 4.8 14.5 0.00 0.00 0.00 67 1014.6
20260506004826 23 144 4.8 12.9 0.00 0.00 0.00 68 1014.7
20260506004326 23 137 4.8 12.9 0.00 0.00 0.00 68 1014.7
20260506003826 23 110 4.8 12.9 0.00 0.00 0.00 68 1014.7
20260506003326 23 131 3.2 12.9 0.00 0.00 0.00 67 1014.6
20260506003134 23 138 3.2 9.7 0.00 0.00 0.00 67 1014.7
20260506002826 23 138 3.2 9.7 0.00 0.00 0.00 67 1014.7
20260506002326 24 117 3.2 9.7 0.00 0.00 0.00 66 1014.4
20260506001826 24 165 4.8 9.7 0.00 0.00 0.00 65 1014.4
20260506001326 25 93 4.8 11.3 0.00 0.00 0.00 65 1014.2
20260506000826 25 34 6.4 12.9 0.00 0.00 0.00 64 1014.3
20260506000326 25 128 4.8 17.7 0.00 0.00 0.00 64 1014.0
20260505235826 25 124 4.8 12.9 0.00 0.00 0.00 64 1014.2
20260505235818 25 149 6.4 14.5 0.00 0.00 0.00 63 1014.1
20260505235326 25 149 6.4 14.5 0.00 0.00 0.00 63 1014.1
20260505235132 26 165 4.8 11.3 0.00 0.00 0.00 63 1014.1
20260505234826 26 165 4.8 11.3 0.00 0.00 0.00 63 1014.1
20260505234326 26 102 6.4 14.5 0.00 0.00 0.00 62 1014.0
20260505233826 26 66 8.0 16.1 0.00 0.00 0.00 62 1013.9
20260505233757 26 110 8.0 16.1 0.00 0.00 0.00 60 1013.9
20260505233327 26 110 8.0 16.1 0.00 0.00 0.00 60 1013.9
20260505233101 26 185 8.0 16.1 0.00 0.00 0.00 60 1013.7
20260505232826 26 185 8.0 16.1 0.00 0.00 0.00 60 1013.7
20260505232630 27 157 6.4 16.1 0.00 0.00 0.00 60 1013.8
20260505232327 27 157 6.4 16.1 0.00 0.00 0.00 60 1013.8
20260505231827 27 120 6.4 19.3 0.00 0.00 0.00 60 1013.5
20260505231326 27 137 6.4 14.5 0.00 0.00 0.00 59 1013.6
20260505230827 27 113 8.0 12.9 0.00 0.00 0.00 59 1013.9
20260505230719 27 41 6.4 17.7 0.00 0.00 0.00 57 1013.9
20260505230327 27 41 6.4 17.7 0.00 0.00 0.00 57 1013.9
20260505225827 28 66 4.8 14.5 0.00 0.00 0.00 57 1013.9
20260505225742 28 113 3.2 11.3 0.00 0.00 0.00 58 1013.9
20260505225327 28 113 3.2 11.3 0.00 0.00 0.00 58 1013.9
20260505224827 28 44 3.2 9.7 0.00 0.00 0.00 56 1013.9
20260505224327 28 140 3.2 12.9 0.00 0.00 0.00 56 1013.8
20260505223827 28 120 3.2 4.8 0.00 0.00 0.00 56 1013.9
20260505223327 28 131 4.8 11.3 0.00 0.00 0.00 54 1013.8
20260505222827 28 104 4.8 11.3 0.00 0.00 0.00 55 1013.8
20260505222327 29 153 6.4 11.3 0.00 0.00 0.00 54 1013.8
20260505221827 29 160 8.0 16.1 0.00 0.00 0.00 53 1013.5
20260505221632 30 165 8.0 16.1 0.00 0.00 0.00 52 1013.7
20260505221327 30 165 8.0 16.1 0.00 0.00 0.00 52 1013.7
20260505220827 30 115 6.4 19.3 0.00 0.00 0.00 51 1013.8
20260505220327 30 140 3.2 11.3 0.00 0.00 0.00 48 1013.8
20260505215827 30 61 3.2 6.4 0.00 0.00 0.00 48 1013.7
20260505215327 30 93 6.4 6.4 0.00 0.00 0.00 48 1013.8
20260505214827 30 113 6.4 12.9 0.00 0.00 0.00 49 1013.8
20260505214327 30 76 4.8 12.9 0.00 0.00 0.00 47 1013.8
20260505213827 30 20 4.8 9.7 0.00 0.00 0.00 48 1013.7
20260505213514 30 160 4.8 16.1 0.00 0.00 0.00 50 1013.5
20260505213327 30 160 4.8 16.1 0.00 0.00 0.00 50 1013.5
20260505213034 30 151 6.4 9.7 0.00 0.00 0.00 51 1013.6
20260505212827 30 151 6.4 9.7 0.00 0.00 0.00 51 1013.6
20260505212327 30 144 8.0 14.5 0.00 0.00 0.00 49 1013.7
20260505211827 30 20 8.0 16.1 0.00 0.00 0.00 48 1013.7
20260505211630 30 111 4.8 14.5 0.00 0.00 0.00 47 1013.4
20260505211327 30 111 4.8 14.5 0.00 0.00 0.00 47 1013.4
20260505210827 30 170 3.2 8.0 0.00 0.00 0.00 48 1013.6
20260505210536 30 170 3.2 6.4 0.00 0.00 0.00 46 1013.6
20260505210327 30 170 3.2 6.4 0.00 0.00 0.00 46 1013.6
20260505205827 30 265 4.8 8.0 0.00 0.00 0.00 46 1013.7
20260505205327 30 160 6.4 11.3 0.00 0.00 0.00 49 1013.6
20260505204827 30 165 4.8 14.5 0.00 0.00 0.00 47 1013.6
20260505204327 30 178 3.2 8.0 0.00 0.00 0.00 48 1013.7
20260505203827 30 137 3.2 8.0 0.00 0.00 0.00 49 1013.8
20260505203520 30 133 3.2 9.7 0.00 0.00 0.00 47 1013.9
20260505203327 30 133 3.2 9.7 0.00 0.00 0.00 47 1013.9
20260505203004 30 111 3.2 4.8 0.00 0.00 0.00 46 1013.9
20260505202827 30 111 3.2 4.8 0.00 0.00 0.00 46 1013.9
20260505202327 30 93 3.2 6.4 0.00 0.00 0.00 48 1013.8
20260505201827 30 144 4.8 8.0 0.00 0.00 0.00 48 1013.8
20260505201327 30 120 3.2 12.9 0.00 0.00 0.00 47 1013.9
20260505201011 30 76 3.2 4.8 0.00 0.00 0.00 50 1013.9
20260505200827 30 76 3.2 4.8 0.00 0.00 0.00 50 1013.9
20260505200327 30 111 4.8 6.4 0.00 0.00 0.00 48 1013.8
20260505195827 30 93 6.4 11.3 0.00 0.00 0.00 48 1013.7
20260505195327 30 106 6.4 12.9 0.00 0.00 0.00 48 1013.9
20260505194827 30 133 6.4 16.1 0.00 0.00 0.00 50 1014.0
20260505194327 30 102 6.4 14.5 0.00 0.00 0.00 48 1014.1
20260505193827 30 128 8.0 16.1 0.00 0.00 0.00 50 1014.2
20260505193500 30 19 4.8 11.3 0.00 0.00 0.00 44 1014.3
20260505193327 30 19 4.8 11.3 0.00 0.00 0.00 44 1014.3
20260505192827 30 341 3.2 8.0 0.00 0.00 0.00 46 1014.4
20260505192327 29 46 3.2 4.8 0.00 0.00 0.00 46 1014.5
20260505191954 28 83 4.8 6.4 0.00 0.00 0.00 46 1014.5
20260505191827 28 83 4.8 6.4 0.00 0.00 0.00 46 1014.5
20260505191327 28 153 8.0 11.3 0.00 0.00 0.00 49 1014.7
20260505191002 30 165 8.0 20.9 0.00 0.00 0.00 47 1014.7
20260505190827 30 165 8.0 20.9 0.00 0.00 0.00 47 1014.7
20260505190502 30 183 6.4 14.5 0.00 0.00 0.00 51 1014.6
20260505190327 30 183 6.4 14.5 0.00 0.00 0.00 51 1014.6
20260505185827 30 163 6.4 16.1 0.00 0.00 0.00 51 1014.7
20260505185327 29 48 8.0 16.1 0.00 0.00 0.00 54 1014.7
20260505184827 29 144 8.0 19.3 0.00 0.00 0.00 52 1014.7
20260505184327 29 93 6.4 12.9 0.00 0.00 0.00 51 1014.9
20260505184029 28 309 6.4 14.5 0.00 0.00 0.00 48 1014.6
20260505183827 28 309 6.4 14.5 0.00 0.00 0.00 48 1014.6
20260505183327 28 100 6.4 14.5 0.00 0.00 0.00 50 1014.7
20260505182827 28 90 6.4 16.1 0.00 0.00 0.00 53 1014.9
20260505182541 28 123 6.4 16.1 0.00 0.00 0.00 52 1014.9
20260505182327 28 123 6.4 16.1 0.00 0.00 0.00 52 1014.9
20260505181953 28 113 6.4 16.1 0.00 0.00 0.00 53 1015.0
20260505181827 28 113 6.4 16.1 0.00 0.00 0.00 53 1015.0
20260505181327 28 51 8.0 16.1 0.00 0.00 0.00 52 1015.3
20260505180827 28 59 8.0 19.3 0.00 0.00 0.00 51 1015.3
20260505180451 28 9 6.4 16.1 0.00 0.00 0.00 52 1015.4
20260505180327 28 9 6.4 16.1 0.00 0.00 0.00 52 1015.4
20260505175827 28 331 4.8 19.3 0.00 0.00 0.00 53 1015.3
20260505175327 28 291 3.2 9.7 0.00 0.00 0.00 51 1015.3
20260505174827 28 104 3.2 11.3 0.00 0.00 0.00 52 1015.5
20260505174327 28 178 4.8 14.5 0.00 0.00 0.00 51 1015.7
20260505174029 29 93 4.8 9.7 0.00 0.00 0.00 51 1015.7
20260505173827 29 93 4.8 9.7 0.00 0.00 0.00 51 1015.7
20260505173327 29 340 4.8 9.7 0.00 0.00 0.00 50 1015.6
20260505173006 29 165 6.4 12.9 0.00 0.00 0.00 52 1015.6
20260505172827 29 165 6.4 12.9 0.00 0.00 0.00 52 1015.6
20260505172327 28 38 6.4 12.9 0.00 0.00 0.00 52 1015.7
20260505171827 28 61 6.4 12.9 0.00 0.00 0.00 52 1015.8
20260505171510 28 165 6.4 14.5 0.00 0.00 0.00 54 1015.8
20260505171327 28 165 6.4 14.5 0.00 0.00 0.00 54 1015.8
20260505171025 28 342 6.4 11.3 0.00 0.00 0.00 54 1015.9
20260505170827 28 342 6.4 11.3 0.00 0.00 0.00 54 1015.9
20260505170526 28 76 8.0 14.5 0.00 0.00 0.00 52 1015.9
20260505170327 28 76 8.0 14.5 0.00 0.00 0.00 52 1015.9
20260505170028 28 126 6.4 16.1 0.00 0.00 0.00 53 1015.9
20260505165932 28 126 6.4 16.1 0.00 0.00 0.00 53 1015.9
20260505165827 28 126 6.4 16.1 0.00 0.00 0.00 53 1015.9
20260505165327 28 144 6.4 14.5 0.00 0.00 0.00 52 1016.0
20260505164827 28 50 8.0 16.1 0.00 0.00 0.00 54 1015.8
20260505164327 28 171 6.4 14.5 0.00 0.00 0.00 54 1016.0
20260505163827 27 159 8.0 16.1 0.00 0.00 0.00 57 1016.0
20260505163327 27 146 9.7 17.7 0.00 0.00 0.00 55 1015.8
20260505163010 28 129 6.4 16.1 0.00 0.00 0.00 52 1015.9
20260505162827 28 129 6.4 16.1 0.00 0.00 0.00 52 1015.9
20260505162328 28 156 4.8 9.7 0.00 0.00 0.00 52 1016.0
20260505162057 28 117 8.0 16.1 0.00 0.00 0.00 52 1016.1
20260505161827 28 117 8.0 16.1 0.00 0.00 0.00 52 1016.1
20260505161327 28 135 6.4 20.9 0.00 0.00 0.00 53 1016.0
20260505161135 28 123 6.4 9.7 0.00 0.00 0.00 51 1016.1
20260505160828 28 123 6.4 9.7 0.00 0.00 0.00 51 1016.1
20260505160328 27 129 9.7 17.7 0.00 0.00 0.00 53 1016.2
20260505153328 27 82 4.8 12.9 0.00 0.00 0.00 58 1016.1
20260505152918 27 133 6.4 11.3 0.00 0.00 0.00 58 1016.1
20260505152828 27 133 6.4 11.3 0.00 0.00 0.00 58 1016.1
20260505152328 27 126 8.0 14.5 0.00 0.00 0.00 60 1016.0
20260505152107 27 34 6.4 17.7 0.00 0.00 0.00 60 1016.0
20260505151828 27 34 6.4 17.7 0.00 0.00 0.00 60 1016.0
20260505151328 27 120 8.0 16.1 0.00 0.00 0.00 60 1016.1
20260505151124 27 76 8.0 16.1 0.00 0.00 0.00 58 1016.1
20260505150828 27 76 8.0 16.1 0.00 0.00 0.00 58 1016.1
20260505150328 27 137 6.4 17.7 0.00 0.00 0.00 57 1016.2